This is the latest recevied weather packets stored in our database for station/object KB9PMA-1. If no packets are shown the sender has not sent any weather packets the latest 10 day(s).
| Time | Temp. | Humidity | Pressure | Rain* | Wind** | Luminosity | Snow |
|---|---|---|---|---|---|---|---|
| 1777942378 | 21.11° C | 52% | 1004.2 hPa | 0 mm | - | - | - |
| 1777942078 | 21.11° C | 52% | 1004.1 hPa | 0 mm | - | - | - |
| 1777941778 | 21.11° C | 52% | 1004.1 hPa | 0 mm | - | - | - |
| 1777941478 | 20.56° C | 53% | 1004.1 hPa | 0 mm | - | - | - |
| 1777941178 | 20.56° C | 56% | 1004.1 hPa | 0 mm | - | - | - |
| 1777940878 | 20.56° C | 55% | 1004.1 hPa | 0 mm | - | - | - |
| 1777940578 | 20° C | 61% | 1004 hPa | 0 mm | - | - | - |
| 1777940278 | 20° C | 61% | 1003.8 hPa | 0 mm | - | - | - |
| 1777939978 | 20.56° C | 61% | 1003.9 hPa | 0 mm | - | - | - |
| 1777939678 | 20.56° C | 60% | 1003.9 hPa | 0 mm | - | - | - |
| 1777939378 | 20.56° C | 59% | 1003.8 hPa | 0 mm | - | - | - |
| 1777939081 | 20.56° C | 59% | 1003.8 hPa | 0 mm | - | - | - |
| 1777938781 | 20.56° C | 59% | 1003.8 hPa | 0 mm | - | - | - |
| 1777938581 | 20.56° C | 59% | 1003.9 hPa | 0 mm | - | - | - |
| 1777938481 | 20.56° C | 59% | 1003.9 hPa | 0 mm | - | - | - |
| 1777938178 | 20.56° C | 59% | 1003.9 hPa | 0 mm | - | - | - |
| 1777937878 | 20.56° C | 58% | 1003.9 hPa | 0 mm | - | - | - |
| 1777937578 | 21.11° C | 57% | 1004 hPa | 0 mm | - | - | - |
| 1777937279 | 21.67° C | 57% | 1004.1 hPa | 0 mm | - | - | - |
| 1777936978 | 21.67° C | 55% | 1004.2 hPa | 0 mm | - | - | - |
| 1777936678 | 21.67° C | 56% | 1004.2 hPa | 0 mm | - | - | - |
| 1777936379 | 21.67° C | 56% | 1004.2 hPa | 0 mm | - | - | - |
| 1777936078 | 21.67° C | 58% | 1004.2 hPa | 0 mm | - | - | - |
| 1777935779 | 21.67° C | 56% | 1004.3 hPa | 0 mm | - | - | - |
| 1777935479 | 21.67° C | 56% | 1004.4 hPa | 0 mm | - | - | - |
* Rain latest hour (hover to see other rain measurements)
** Current wind speed in m/s (hover to see current wind gust speed)